Weather History for Bartow, FL

Change the Weather History Date:

Monday, August 27, 2012

  Actual Average Record
Temperature  
Mean Temperature 78 °F -  
Max Temperature 82 °F 92 °F 97 °F (1941)
Min Temperature 73 °F 72 °F 62 °F (1957)
Cooling Degree Days 12    
Growing Degree Days 28 (Base 50)    
Moisture  
Dew Point 75 °F    
Average Humidity 91    
Maximum Humidity 100    
Minimum Humidity 79    
Precipitation  
Precipitation 1.64 in - - ()
Sea Level Pressure  
Sea Level Pressure 29.82 in    
Wind  
Wind Speed 16 mph (ESE)    
Max Wind Speed 25 mph    
Max Gust Speed 34 mph    
Visibility 7 miles    
Events Rain , Thunderstorm    
Averages and records for this station are not official NWS values.
T = Trace of Precipitation, MM = Missing Value Source: NWS Daily Summary

Daily Weather History Graph

Daily Weather History Graph

Search for Another Location

Airport:

Trip Planner

Search our weather history database for the weather conditions in past years. The results will help you decide how hot, cold, wet, or windy it might be!

Date:

Astronomy

Aug. 27, 2012 Rise Set
Actual Time 7:03 AM EDT 7:52 PM EDT
Civil Twilight 6:39 AM EDT 8:16 PM EDT
Nautical Twilight 6:11 AM EDT 8:45 PM EDT
Astronomical Twilight 5:42 AM EDT 9:13 PM EDT
Moon 4:58 PM EDT (8/27) 3:00 AM EDT (8/27)
Length of Visible Light 13h 37m
Length of Day
12h 49m
Waxing Gibbous, 82% of the Moon is Illuminated
Aug 27
Waxing Gibbous
Aug 31
Full
Sep 8
Last Quarter
Sep 15
New
Sep 22
First Quarter

Hourly Weather History & Observations

Time (EDT) Temp. Heat Index Dew Point Humidity Pressure Visibility Wind Dir Wind Speed Gust Speed Precip Events Conditions
12:55 AM 73.4 °F - 73.4 °F 100% 29.84 in 3.0 mi ENE 15.0 mph 23.0 mph 0.09 in Rain Rain
1:15 AM 73.4 °F - 73.4 °F 100% 29.84 in 1.8 mi ENE 17.3 mph 23.0 mph 0.07 in Rain Heavy Rain
1:35 AM 75.2 °F - 75.2 °F 100% 29.83 in 1.8 mi ENE 15.0 mph 20.7 mph 0.16 in Rain Heavy Rain
1:55 AM 75.2 °F - 75.2 °F 100% 29.83 in 2.5 mi ENE 15.0 mph 26.5 mph 0.23 in Rain Rain
2:15 AM 75.2 °F - 75.2 °F 100% 29.81 in 3.0 mi NE 16.1 mph 25.3 mph 0.11 in Rain , Thunderstorm Rain
2:35 AM 75.2 °F - 75.2 °F 100% 29.82 in - East 25.3 mph 29.9 mph 0.51 in Rain Heavy Rain
2:55 AM 75.2 °F - 75.2 °F 100% 29.81 in 2.5 mi East 11.5 mph 19.6 mph 0.55 in Rain Rain
3:35 AM 73.4 °F - 73.4 °F 100% 29.80 in 6.0 mi East 17.3 mph 23.0 mph 0.03 in Rain Light Rain
3:55 AM 73.4 °F - 73.4 °F 100% 29.79 in 10.0 mi East 12.7 mph 20.7 mph 0.03 in   Mostly Cloudy
4:15 AM 73.4 °F - 73.4 °F 100% 29.79 in 5.0 mi East 15.0 mph 25.3 mph N/A Rain Rain
4:35 AM 73.4 °F - 73.4 °F 100% 29.79 in - East 20.7 mph 28.8 mph 0.22 in Rain Rain
4:55 AM 73.4 °F - 73.4 °F 100% 29.79 in 2.5 mi East 18.4 mph 26.5 mph 0.29 in Rain Rain
5:15 AM 73.4 °F - 73.4 °F 100% 29.79 in 2.5 mi East 16.1 mph 24.2 mph 0.03 in Rain Rain
5:35 AM 73.4 °F - 73.4 °F 100% 29.80 in 3.0 mi East 17.3 mph 24.2 mph 0.08 in Rain Light Rain
5:55 AM 73.4 °F - 73.4 °F 100% 29.80 in 1.2 mi East 15.0 mph 26.5 mph 0.16 in Rain Heavy Rain
6:15 AM 73.4 °F - 73.4 °F 100% 29.80 in 1.8 mi East 17.3 mph 24.2 mph 0.13 in Rain Rain
6:35 AM 73.4 °F - 73.4 °F 100% 29.80 in 1.8 mi East 17.3 mph 26.5 mph 0.22 in Rain Light Rain
6:55 AM 73.4 °F - 73.4 °F 100% 29.81 in 3.0 mi East 15.0 mph 24.2 mph 0.25 in Rain Light Rain
7:15 AM 73.4 °F - - N/A% 29.81 in 1.5 mi ENE 15.0 mph 23.0 mph 0.04 in Rain Heavy Rain
7:30 AM 73.4 °F - 73.4 °F 100% 29.81 in 3.0 mi East 17.3 mph 32.2 mph N/A Rain Rain
7:55 AM 73.4 °F - 73.4 °F 100% 29.82 in 5.0 mi East 20.7 mph 34.5 mph N/A Rain Light Rain
8:52 AM 75.2 °F - 75.2 °F 100% 29.83 in 5.0 mi East 13.8 mph 23.0 mph N/A Rain Light Rain
9:52 AM 75.2 °F - 75.2 °F 100% 29.84 in 6.0 mi East 17.3 mph 27.6 mph N/A Rain Light Rain
10:54 AM 75.2 °F - 75.2 °F 100% 29.83 in 10.0 mi East 18.4 mph 28.8 mph N/A   Overcast
11:53 AM 78.8 °F - 78.8 °F 100% 29.84 in 10.0 mi ESE 17.3 mph 28.8 mph N/A   Overcast
1:15 PM 82.4 °F 89.5 °F 75.2 °F 79% 29.83 in 8.0 mi ESE 18.4 mph 25.3 mph N/A   Scattered Clouds
1:35 PM 82.4 °F 89.5 °F 75.2 °F 79% 29.82 in 8.0 mi ESE 23.0 mph 29.9 mph N/A   Scattered Clouds
1:55 PM 82.4 °F 89.5 °F 75.2 °F 79% 29.82 in 7.0 mi ESE 16.1 mph 25.3 mph N/A   Mostly Cloudy
2:15 PM 82.4 °F 89.5 °F 75.2 °F 79% 29.81 in 8.0 mi ESE 18.4 mph 28.8 mph N/A Thunderstorm Mostly Cloudy
2:35 PM 82.4 °F 89.5 °F 75.2 °F 79% 29.81 in 8.0 mi ESE 18.4 mph 24.2 mph N/A   Mostly Cloudy
2:55 PM 82.4 °F 89.5 °F 75.2 °F 79% 29.81 in 9.0 mi ESE 19.6 mph 26.5 mph N/A   Mostly Cloudy
3:15 PM 80.6 °F 86.2 °F 75.2 °F 84% 29.81 in 9.0 mi ESE 17.3 mph 26.5 mph N/A   Overcast
3:35 PM 82.4 °F 89.5 °F 75.2 °F 79% 29.81 in 8.0 mi ESE 21.9 mph 26.5 mph N/A   Scattered Clouds
3:55 PM 82.4 °F 89.5 °F 75.2 °F 79% 29.81 in 9.0 mi ESE 16.1 mph 26.5 mph N/A   Mostly Cloudy
4:15 PM 82.4 °F 89.5 °F 75.2 °F 79% 29.80 in 9.0 mi ESE 20.7 mph 27.6 mph N/A   Mostly Cloudy
4:35 PM 82.4 °F 89.5 °F 75.2 °F 79% 29.80 in 10.0 mi ESE 20.7 mph 25.3 mph N/A Thunderstorm Mostly Cloudy
4:55 PM 80.6 °F 86.2 °F 75.2 °F 84% 29.79 in 7.0 mi SE 15.0 mph 25.3 mph N/A   Mostly Cloudy
5:15 PM 80.6 °F 86.2 °F 75.2 °F 84% 29.79 in 9.0 mi ESE 13.8 mph 25.3 mph N/A   Mostly Cloudy
5:35 PM 80.6 °F 86.2 °F 75.2 °F 84% 29.79 in 8.0 mi ESE 16.1 mph 23.0 mph N/A   Mostly Cloudy
5:55 PM 80.6 °F 86.2 °F 75.2 °F 84% 29.80 in 8.0 mi ESE 16.1 mph 23.0 mph N/A   Mostly Cloudy
6:15 PM 80.6 °F 86.2 °F 75.2 °F 84% 29.81 in 8.0 mi ESE 15.0 mph - N/A   Mostly Cloudy
6:35 PM 80.6 °F 85.4 °F 73.4 °F 79% 29.81 in - ESE 17.3 mph 26.5 mph N/A   Mostly Cloudy
6:55 PM 80.6 °F 85.4 °F 73.4 °F 79% 29.81 in 5.0 mi ESE 18.4 mph 27.6 mph N/A   Haze
7:15 PM 80.6 °F 85.4 °F 73.4 °F 79% 29.81 in 8.0 mi ESE 16.1 mph 21.9 mph N/A   Mostly Cloudy
7:35 PM 80.6 °F 85.4 °F 73.4 °F 79% 29.82 in 8.0 mi ESE 15.0 mph 23.0 mph N/A   Mostly Cloudy
7:55 PM 78.8 °F - 75.2 °F 89% 29.82 in 8.0 mi ESE 16.1 mph 24.2 mph N/A Thunderstorm Mostly Cloudy
8:15 PM 78.8 °F - 75.2 °F 89% 29.83 in 10.0 mi ESE 17.3 mph 20.7 mph N/A   Mostly Cloudy
8:35 PM 78.8 °F - 75.2 °F 89% 29.84 in 9.0 mi ESE 13.8 mph 19.6 mph N/A   Mostly Cloudy
8:55 PM 78.8 °F - 75.2 °F 89% 29.84 in 10.0 mi SE 18.4 mph 25.3 mph N/A   Mostly Cloudy
9:15 PM 78.8 °F - 75.2 °F 89% 29.85 in 10.0 mi ESE 12.7 mph - N/A   Mostly Cloudy
9:35 PM 78.8 °F - 75.2 °F 89% 29.86 in 8.0 mi ESE 15.0 mph - N/A   Mostly Cloudy
9:55 PM 78.8 °F - 75.2 °F 89% 29.87 in 10.0 mi SE 16.1 mph 20.7 mph N/A   Scattered Clouds
10:15 PM 78.8 °F - 75.2 °F 89% 29.89 in 9.0 mi SE 11.5 mph - N/A   Scattered Clouds
10:35 PM 78.8 °F - 75.2 °F 89% 29.90 in 10.0 mi ESE 12.7 mph - N/A   Mostly Cloudy
10:55 PM 78.8 °F - 75.2 °F 89% 29.91 in 8.0 mi SSE 10.4 mph - N/A   Mostly Cloudy
11:15 PM 78.8 °F - 75.2 °F 89% 29.91 in 9.0 mi SE 13.8 mph 17.3 mph N/A   Mostly Cloudy
11:35 PM 78.8 °F - 75.2 °F 89% 29.92 in 8.0 mi ESE 13.8 mph 18.4 mph N/A   Mostly Cloudy
11:55 PM 78.8 °F - 75.2 °F 89% 29.92 in 9.0 mi SE 12.7 mph 17.3 mph N/A   Mostly Cloudy